Regional Weather Roundup
Issued by NWS

Home | Current Version | Previous Version | Graphics & Text | Print | Product List | Glossary On
Versions: 1 2 3 4 5 6 7 8 9 10 11 12 13 14 15 16 17 18 19 20 21 22 23 24 25 26 27 28 29 30 31 32 33 34 35 36 37 38 39 40 41 42 43 44 45 46 47 48 49 50
000
ASUS43 KMKX 300200
RWRWI

WISCONSIN REGIONAL WEATHER ROUNDUP
NATIONAL WEATHER SERVICE MILWAUKEE/SULLIVAN WI
900 PM CDT TUE JUL 29 2014

NOTE: "FAIR" INDICATES FEW OR NO CLOUDS BELOW 12,000 FEET WITH NO
SIGNIFICANT WEATHER AND/OR OBSTRUCTIONS TO VISIBILITY.

WIZ001-002-006>008-014>016-023>028-300300-
NORTHWEST WISCONSIN

CITY           SKY/WX    TMP DP  RH WIND       PRES   REMARKS
SUPERIOR ARPT  LGT RAIN  59  56  92 E6        30.05R
ASHLAND        MOCLDY    58  56  93 W3        30.02F
HAYWARD        PTCLDY    59  59 100 NE9       30.06R
SIREN          CLOUDY    64  57  78 CALM      30.04F
RICE LAKE      LGT RAIN  60  57  89 CALM      30.06F
LADYSMITH      CLOUDY    60  57  91 SW5       30.05S
EAU CLAIRE     CLOUDY    63  56  78 NE9       30.06R
MENOMONIE      CLOUDY    65  54  66 NE8       30.06R
NEW RICHMOND   CLOUDY    69  57  66 CALM      30.04S
OSCEOLA        CLEAR     70  58  65 NW3       30.06S
$$

WIZ003>005-009-010-017-018-300300-
NORTH CENTRAL WISCONSIN

CITY           SKY/WX    TMP DP  RH WIND       PRES   REMARKS
WOODRUFF       MOCLDY    62  55  78 NW3       30.01F
RHINELANDER    PTCLDY    57  55  93 W5        30.02S
EAGLE RIVER    MOCLDY    61  52  73 NW6       30.01S
LAND O LAKES   MOCLDY    62  53  72 N5        30.02S
PHILLIPS       PTCLDY    57  55  94 CALM      30.03R
TOMAHAWK       MOCLDY    56  54  94 CALM      30.02F
MEDFORD        CLOUDY    58  55  91 CALM      30.02F
MERRILL        CLOUDY    59  57  92 CALM      30.01S
$$

WIZ029-030-035-036-043>047-300300-
CENTRAL WISCONSIN

CITY           SKY/WX    TMP DP  RH WIND       PRES   REMARKS
WAUSAU         LGT RAIN  60  57  89 W9        30.00S
MOSINEE        PTCLDY    63  55  77 W10       30.02F
MARSHFIELD     LGT RAIN  61  57  87 NW9       30.03S
STEVENS POINT  MOCLDY    61  54  77 W5        30.02S
WAUPACA        MOCLDY    63  60  91 CALM      29.99F
WAUTOMA        NOT AVBL
WISC RAPIDS    MOCLDY    62  59  90 W5        30.04S
CAMP DOUGLAS   NOT AVBL
$$

WIZ011>013-019>022-031-037>040-048>050-300300-
NORTHEAST WISCONSIN

CITY           SKY/WX    TMP DP  RH WIND       PRES   REMARKS
ANTIGO         MOCLDY    58  55  91 NW6       30.01R
STURGEON BAY   CLOUDY    61  54  77 SW6       29.97R THUNDER
GREEN BAY      PTCLDY    60  58  92 W7        29.97S
MANITOWOC      NOT AVBL
APPLETON       MOCLDY    61  57  88 W8        29.99F
CLINTONVILLE   MOCLDY    61  59  94 W7        29.98F
OSHKOSH        PTCLDY    60  58  92 SW6       29.99F
$$

WIZ032>034-041-042-053>061-300300-
SOUTHWEST WISCONSIN

CITY           SKY/WX    TMP DP  RH WIND       PRES   REMARKS
LA CROSSE      LGT RAIN  65  61  87 W5        30.04R
SPARTA         MOCLDY    60  59  96 CALM      30.05R
VIROQUA        CLOUDY    61  60  94 NW15G28   30.07S
BOSCOBEL       PTCLDY    68  55  63 VRB3      30.05R
PRAIRIE DU CHI MOCLDY    73  55  54 CALM      30.02S
PLATTEVILLE    FAIR      65  59  81 E3        30.05S
$$

WIZ056-057-062-063-064-067-068-300300-
SOUTH CENTRAL WISCONSIN

CITY           SKY/WX    TMP DP  RH WIND       PRES   REMARKS
BARABOO/DELLS  CLOUDY    63  56  79 NW6       30.04S
LONE ROCK      LGT RAIN  68  59  73 N5        30.04S
WATERTOWN      LGT RAIN  60  58  92 NE9       30.05R
MADISON        CLOUDY    65  58  78 N3        30.04R
MIDDLETON      CLOUDY    64  57  79 CALM      30.04S
MONROE         LGT RAIN  61  59  94 W10       30.04F
JANESVILLE     CLOUDY    64  55  72 NW13      30.02R
$$

WIZ051-052-058>065-066-070>072-300300-
SOUTHEAST WISCONSIN

CITY           SKY/WX    TMP DP  RH WIND       PRES   REMARKS
MILWAUKEE      TSTM      62  57  83 NW10      30.04R
WAUKESHA       LGT RAIN  57  55  94 N3        30.07R
MILWAUKEE/TIMM RAIN      61  55  82 NW6       30.05R
RACINE         MOCLDY    64  57  78 N10       30.05R
BURLINGTON     MOCLDY    67  54  64 N22G35    30.03R
KENOSHA        MOCLDY    67  58  72 W8        29.99R
FOND DU LAC    MOCLDY    59  56  89 S3        30.00F
SHEBOYGAN      CLOUDY    60  57  89 W7        29.98F
WEST BEND      RAIN      59  54  82 SW6       30.03R
JUNEAU         CLOUDY    59  55  88 SE6       30.04F
$$

LSZ147-162-300300-
LAKE SUPERIOR

STATION/POSITION TIME  TEMP    WIND        PRES    WAVE
                       AIR SEA DIR/SP/G            HT/PER
                 (UTC) (F)     (DEG/KT/KT) (MB)    (FT/S)
W MID LAKE BUOY  0050   49 44  300/  6/  6 1015.9F   1
PORT WING        0100   60     150/  2     1016.9R
SAXON HARBOR     0100          200/  2/  3 1015.9F
$$

LMZ867-665-643>646-300300-
LAKE MICHIGAN

STATION/POSITION TIME  TEMP    WIND        PRES    WAVE
                       AIR SEA DIR/SP/G            HT/PER
                 (UTC) (F)     (DEG/KT/KT) (MB)    (FT/S)
N MID LAKE BUOY  0050   58 55  240/  4/  4 1014.3R   0
NORTHPORT PIER   0100   64     240/  2/  3 1014.6R
SISTER BAY       0140   63      CALM  /  4   N/A
ALGOMA LAKESHORE 0006          260/  8/  9   N/A
KEWAUNEE LAKESHO 0100   64     290/  5/  7 1015.3S
SHEBOYGAN LAKESH 0100   63     250/ 12/ 14 1015.2F
PORT WASHINGTON  0100   62     290/  6/ 10 1017.3S
ATWATER BUOY     0100   64      40/  8     1017.1R
MILWAUKEE LAKESH 0100   64      50/ 13/ 16   N/A
S MID LAKE BUOY  0050   63 62  220/  6/  8 1015.0F   0
KENOSHA   LAKESH 0100   65     190/  9/ 11 1014.6F
$$

TC  - TEMPERATURE IN CELSIUS
VSB - VISIBILITY IN STATUTE MILES
WCI - WIND CHILL INDEX
HX  - HEAT INDEX




USA.gov is the U.S. government's official web portal to all federal, state and local government web resources and services.